KD9IXX-13 Weather Reports


Display with metric or nautical units.
time (UTC)temp
F
wind
direction
speed
MPH
gust
MPH
rain 1hr
in
rain 24hr
in
rain mn
in
humidity
%
barometer
mb
20260903154002 88 256 2.0 3.0 0.00 0.00 0.00 73 1016.0
20260903153501 88 269 1.0 5.0 0.00 0.00 0.00 73 1016.1
20260903153002 88 290 1.0 5.0 0.00 0.00 0.00 73 1016.0
20260903152002 88 269 2.0 4.0 0.00 0.00 0.00 75 1016.1
20260903151502 88 280 1.0 4.0 0.00 0.00 0.00 74 1016.1
20260903151002 88 256 3.0 3.0 0.00 0.00 0.00 75 1016.1
20260903150502 88 259 2.0 4.0 0.00 0.00 0.00 76 1016.1
20260903145002 86 267 2.0 6.0 0.00 0.00 0.00 77 1016.2
20260903143502 85 286 3.0 4.0 0.00 0.00 0.00 78 1016.1
20260903143002 85 218 1.0 5.0 0.00 0.00 0.00 78 1015.9
20260903142502 85 266 1.0 4.0 0.00 0.00 0.00 78 1015.9
20260903142002 85 283 0.0 0.0 0.00 0.00 0.00 80 1015.8
20260903141002 85 303 3.0 5.0 0.00 0.00 0.00 78 1015.9
20260903140502 84 202 3.0 6.0 0.00 0.00 0.00 79 1016.0
20260903135502 84 284 0.0 3.0 0.00 0.00 0.00 80 1015.9
20260903135002 83 249 0.0 0.0 0.00 0.00 0.00 81 1015.9
20260903134502 83 255 0.0 2.0 0.00 0.00 0.00 81 1016.1
20260903132502 80 221 1.0 4.0 0.00 0.00 0.00 86 1015.8
20260903131502 79 247 4.0 7.0 0.00 0.00 0.00 87 1016.1
20260903131002 79 204 1.0 4.0 0.00 0.00 0.00 88 1016.3
20260903130501 78 175 2.0 6.0 0.00 0.00 0.00 89 1016.1
20260903130002 78 188 1.0 6.0 0.00 0.00 0.00 90 1016.2
20260903125002 77 203 1.0 3.0 0.00 0.00 0.00 92 1016.3
20260903124501 76 201 4.0 5.0 0.00 0.00 0.00 92 1016.1
20260903123002 76 230 2.0 3.0 0.00 0.00 0.00 93 1016.2
20260903122501 76 200 1.0 3.0 0.00 0.00 0.00 93 1016.0
20260903122002 75 275 0.0 2.0 0.00 0.00 0.00 94 1016.2
20260903120502 74 262 0.0 0.0 0.00 0.00 0.00 95 1016.2
20260903114502 74 225 0.0 0.0 0.00 0.00 0.00 96 1016.3
20260903113502 73 268 0.0 2.0 0.00 0.00 0.00 96 1016.0
20260903112502 74 262 0.0 0.0 0.00 0.00 0.00 96 1016.0
20260903111504 74 224 0.0 0.0 0.00 0.00 0.00 95 1016.3
20260903110501 74 249 0.0 0.0 0.00 0.00 0.00 95 1016.0
20260903104002 74 265 0.0 0.0 0.00 0.00 0.00 95 1015.8
20260903103502 74 264 0.0 0.0 0.00 0.00 0.00 95 1016.1
20260903103002 74 252 0.0 0.0 0.00 0.00 0.00 95 1015.9
20260903102002 74 270 0.0 3.0 0.00 0.00 0.00 95 1016.1
20260903101502 74 204 1.0 3.0 0.00 0.00 0.00 95 1016.0
20260903095001 75 256 0.0 0.0 0.00 0.00 0.00 94 1015.9
20260903093501 75 262 0.0 0.0 0.00 0.00 0.00 94 1015.9
20260903092502 75 217 0.0 0.0 0.00 0.00 0.00 94 1015.8
20260903090002 75 246 0.0 0.0 0.00 0.00 0.00 95 1015.8
20260903085502 75 230 0.0 0.0 0.00 0.00 0.00 95 1015.5
20260903085002 75 247 0.0 0.0 0.00 0.00 0.00 95 1015.6
20260903084002 76 273 0.0 0.0 0.00 0.00 0.00 95 1015.7
20260903083502 76 275 0.0 0.0 0.00 0.00 0.00 95 1015.8
20260903081002 77 279 0.0 0.0 0.00 0.00 0.00 94 1015.8
20260903080502 77 271 0.0 0.0 0.00 0.00 0.00 93 1015.7
20260903080002 78 277 0.0 0.0 0.00 0.00 0.00 92 1015.7
20260903075002 78 278 0.0 0.0 0.00 0.00 0.00 92 1015.6
20260903074002 77 278 0.0 0.0 0.00 0.00 0.00 93 1015.7
20260903073502 77 271 0.0 2.0 0.00 0.00 0.00 94 1015.7
20260903073002 77 279 0.0 0.0 0.00 0.00 0.00 94 1015.9
20260903072502 76 269 0.0 0.0 0.00 0.00 0.00 95 1015.5
20260903072001 76 269 0.0 0.0 0.00 0.00 0.00 95 1015.6
20260903071502 76 268 0.0 0.0 0.00 0.00 0.00 95 1015.8
20260903071002 76 265 0.0 0.0 0.00 0.00 0.00 95 1015.7
20260903070502 76 271 0.0 0.0 0.00 0.00 0.00 96 1015.6
20260903070002 76 243 0.0 0.0 0.00 0.00 0.00 96 1015.6
20260903063005 77 249 0.0 0.0 0.00 0.00 0.00 96 1015.6
20260903062501 77 251 0.0 0.0 0.00 0.00 0.00 96 1015.5
20260903062003 77 280 0.0 0.0 0.00 0.00 0.00 96 1015.7
20260903061502 77 275 0.0 0.0 0.00 0.00 0.00 96 1015.7
20260903060501 77 257 0.0 0.0 0.00 0.00 0.00 96 1015.6
20260903055502 77 273 0.0 0.0 0.00 0.00 0.00 95 1015.7
20260903054501 77 275 0.0 0.0 0.00 0.00 0.00 96 1015.8
20260903054002 77 275 0.0 0.0 0.00 0.00 0.00 96 1015.7
20260903053501 77 277 0.0 0.0 0.00 0.00 0.00 96 1015.7
20260903053002 77 278 0.0 0.0 0.00 0.00 0.00 96 1015.6
20260903051502 77 280 0.0 0.0 0.00 0.00 0.00 95 1015.5
20260903044002 78 217 0.0 0.0 0.00 0.00 0.00 93 1015.4
20260903043502 79 234 0.0 0.0 0.00 0.00 0.00 92 1015.5
20260903042504 79 277 0.0 0.0 0.00 0.00 0.00 92 1015.3
20260903041501 80 275 0.0 0.0 0.00 0.00 0.00 91 1015.7
20260903040002 80 261 2.0 5.0 0.00 0.00 0.00 91 1015.5
20260903035502 80 263 2.0 5.0 0.00 0.00 0.00 91 1015.3
20260903033002 80 277 0.0 0.0 0.00 0.00 0.00 91 1015.4
20260903024502 81 276 0.0 0.0 0.00 0.00 0.00 90 1015.3
20260903023002 81 277 0.0 0.0 0.00 0.00 0.00 90 1015.4
20260903020504 82 167 4.0 4.0 0.00 0.00 0.00 88 1014.9
20260903020002 82 199 3.0 4.0 0.00 0.00 0.00 87 1015.4
20260903015002 82 257 0.0 0.0 0.00 0.00 0.00 86 1015.2
20260903014502 83 256 0.0 0.0 0.00 0.00 0.00 86 1015.1
20260903013502 83 259 0.0 0.0 0.00 0.00 0.00 84 1015.1
20260903013002 83 225 1.0 2.0 0.00 0.00 0.00 84 1015.0
20260903012502 84 279 0.0 3.0 0.00 0.00 0.00 83 1014.7
20260903011001 84 281 0.0 2.0 0.00 0.00 0.00 83 1014.8
20260903010502 84 203 1.0 3.0 0.00 0.00 0.00 83 1014.9
20260903005502 85 221 2.0 3.0 0.00 0.00 0.00 83 1014.7
20260903005002 85 260 0.0 0.0 0.00 0.00 0.00 83 1014.7
20260903002502 86 279 0.0 0.0 0.00 0.00 0.00 82 1014.7
20260903002002 86 272 0.0 0.0 0.00 0.00 0.00 82 1014.7
20260903001502 86 279 0.0 3.0 0.00 0.00 0.00 81 1014.8
20260903001002 86 272 0.0 0.0 0.00 0.00 0.00 81 1014.8
20260903000502 86 263 0.0 0.0 0.00 0.00 0.00 80 1014.8
20260902234002 88 272 1.0 2.0 0.00 0.00 0.00 77 1014.8
20260902233502 89 279 0.0 0.0 0.00 0.00 0.00 76 1014.8
20260902232502 89 274 1.0 2.0 0.00 0.00 0.00 76 1014.9
20260902231502 89 272 0.0 0.0 0.00 0.00 0.00 76 1015.1
20260902230502 90 269 0.0 2.0 0.00 0.00 0.00 74 1015.1
20260902230002 90 264 0.0 0.0 0.00 0.00 0.00 73 1014.8
20260902222502 92 267 0.0 5.0 0.00 0.00 0.00 70 1015.0
20260902222002 93 263 0.0 3.0 0.00 0.00 0.00 69 1014.8
20260902221002 93 228 1.0 4.0 0.00 0.00 0.00 67 1015.1
20260902214502 93 268 2.0 6.0 0.00 0.00 0.00 66 1015.2
20260902214002 94 270 1.0 5.0 0.00 0.00 0.00 63 1014.9
20260902213001 94 258 2.0 3.0 0.00 0.00 0.00 67 1015.2
20260902211502 94 237 1.0 5.0 0.00 0.00 0.00 63 1015.3
20260902211002 94 281 0.0 3.0 0.00 0.00 0.00 66 1015.2
20260902210501 94 254 2.0 6.0 0.00 0.00 0.00 65 1015.2
20260902205002 94 183 2.0 7.0 0.00 0.00 0.00 65 1015.3
20260902203002 96 277 3.0 5.0 0.00 0.00 0.00 60 1015.4
20260902202501 96 282 0.0 4.0 0.00 0.00 0.00 60 1015.3
20260902202002 95 282 4.0 7.0 0.00 0.00 0.00 62 1015.5
20260902195501 95 270 3.0 6.0 0.00 0.00 0.00 61 1015.5
20260902191502 94 266 1.0 3.0 0.00 0.00 0.00 62 1015.9
20260902191002 94 257 5.0 6.0 0.00 0.00 0.00 62 1016.1
20260902185502 94 279 2.0 4.0 0.00 0.00 0.00 66 1016.4
20260902185002 93 262 4.0 7.0 0.00 0.00 0.00 68 1016.1
20260902184002 93 203 6.0 7.0 0.00 0.00 0.00 66 1016.2
20260902183502 92 299 4.0 6.0 0.00 0.00 0.00 67 1016.3
20260902183002 92 260 2.0 7.0 0.00 0.00 0.00 65 1016.1
20260902182002 92 266 1.0 3.0 0.00 0.00 0.00 69 1016.3
20260902181002 91 267 1.0 6.0 0.00 0.00 0.00 69 1016.4
20260902180003 92 274 2.0 6.0 0.00 0.00 0.00 70 1016.2
20260902175502 92 259 2.0 5.0 0.00 0.00 0.00 70 1016.5
20260902173002 91 242 3.0 5.0 0.00 0.00 0.00 71 1016.7
20260902172502 91 255 3.0 4.0 0.00 0.00 0.00 70 1016.4
20260902171502 90 277 2.0 3.0 0.00 0.00 0.00 70 1016.8
20260902171002 90 274 4.0 7.0 0.00 0.00 0.00 71 1016.7
20260902165502 89 294 2.0 7.0 0.00 0.00 0.00 72 1016.8
20260902164501 89 264 4.0 6.0 0.00 0.00 0.00 73 1016.8
20260902164002 89 268 2.0 5.0 0.00 0.00 0.00 73 1016.9
20260902163502 88 265 0.0 5.0 0.00 0.00 0.00 73 1016.9
20260902163002 88 268 3.0 5.0 0.00 0.00 0.00 74 1016.9
20260902162002 88 260 3.0 6.0 0.00 0.00 0.00 73 1016.9
20260902161502 88 284 3.0 7.0 0.00 0.00 0.00 74 1017.0
20260902160502 87 254 2.0 4.0 0.00 0.00 0.00 76 1016.9